Location: Silverdale
(47.6506°N, 122.6941°W)
Time: 10:30:29
(UTC+00:00)

Tiros 1 despin weight - Pass Details

Date: 06 October 2022
Orbit: 590 x 637 km, 48.2° (Epoch: 02 December)

Event Time Altitude Azimuth Distance (km) Brightness Sun altitude
Rises 04:50:05 0° 285° (WNW) 2,889 ? -31.4°
Reaches altitude 10° 04:52:37 10° 273° (W) 1,990 ? -31.8°
Enters shadow 04:54:30 20° 255° (WSW) 1,437 ? -32.1°
